Volver al catálogo

STARLINK-31486

ActivoComunicacionesVLEO
NORAD 59181·PAYLOAD·🇺🇸 United States

Lanzado Mar 10, 2024 desde Cape Canaveral Space Force Station

Loading…

Próximos Pases (próximas 24 horas)

TLE

ActualizadoSource: CelesTrak SupGP

Época: Sep 14, 2026, 20:43 UTC

1 59181C 24045D   26257.86368056 -.00004690  00000+0 -16991-3 0  2579
2 59181  43.0025 100.9465 0001255 273.8333 337.9352 15.27572034    16

Sigue STARLINK-31486 en tiempo real con AllMySat

Download on the App Store